Time,TemperatureF,DewpointF,PressureIn,WindDirection,WindDirectionDegrees,WindSpeedMPH,WindSpeedGustMPH,Humidity,HourlyPrecipIn,Conditions,Clouds,dailyrainin,SoftwareType,DateUTC
2013-03-23 00:02:00,33.5,28.3,29.96,North,0,0.0,0.0,81,0.00,,,0.00,WUHU216HW,2013-03-23 05:02:00,
2013-03-23 00:07:00,33.5,28.3,29.96,North,0,0.0,0.0,81,0.00,,,0.00,WUHU216HW,2013-03-23 05:07:00,
2013-03-23 00:12:00,33.3,28.1,29.96,North,0,0.0,0.0,81,0.00,,,0.00,WUHU216HW,2013-03-23 05:12:00,
2013-03-23 00:17:00,33.3,28.4,29.96,North,0,0.0,0.0,82,0.00,,,0.00,WUHU216HW,2013-03-23 05:17:00,
2013-03-23 00:22:00,33.5,28.5,29.96,North,0,0.0,0.0,82,0.00,,,0.00,WUHU216HW,2013-03-23 05:22:00,
2013-03-23 00:27:00,33.5,28.5,29.97,North,0,0.0,0.0,82,0.00,,,0.00,WUHU216HW,2013-03-23 05:27:00,
2013-03-23 00:33:00,33.5,28.5,29.97,North,0,0.0,0.0,82,0.00,,,0.00,WUHU216HW,2013-03-23 05:33:00,
2013-03-23 00:38:00,33.5,28.5,29.97,North,0,0.0,0.0,82,0.00,,,0.00,WUHU216HW,2013-03-23 05:38:00,
2013-03-23 00:43:00,33.5,28.5,29.97,North,0,0.0,0.0,82,0.00,,,0.00,WUHU216HW,2013-03-23 05:43:00,
2013-03-23 00:48:00,33.3,28.4,29.96,North,0,0.0,0.0,82,0.00,,,0.00,WUHU216HW,2013-03-23 05:48:00,
2013-03-23 00:53:00,33.3,28.4,29.96,North,0,0.0,0.0,82,0.00,,,0.00,WUHU216HW,2013-03-23 05:53:00,
2013-03-23 00:58:00,33.3,28.6,29.96,North,0,0.0,0.0,83,0.00,,,0.00,WUHU216HW,2013-03-23 05:58:00,
2013-03-23 01:03:00,33.3,28.6,29.96,North,0,0.0,0.0,83,0.00,,,0.00,WUHU216HW,2013-03-23 06:03:00,
2013-03-23 01:08:00,33.3,28.6,29.97,North,0,0.0,0.0,83,0.00,,,0.00,WUHU216HW,2013-03-23 06:08:00,
2013-03-23 01:13:00,33.3,28.6,29.96,North,0,0.0,0.0,83,0.00,,,0.00,WUHU216HW,2013-03-23 06:13:00,
2013-03-23 01:18:00,33.1,28.4,29.96,North,0,0.0,0.0,83,0.00,,,0.00,WUHU216HW,2013-03-23 06:18:00,
2013-03-23 01:23:00,33.1,28.4,29.96,North,0,0.0,0.0,83,0.00,,,0.00,WUHU216HW,2013-03-23 06:23:00,
2013-03-23 01:29:00,33.1,28.4,29.96,North,0,0.0,0.0,83,0.00,,,0.00,WUHU216HW,2013-03-23 06:29:00,
2013-03-23 01:34:00,33.1,28.4,29.95,North,0,0.0,0.0,83,0.00,,,0.00,WUHU216HW,2013-03-23 06:34:00,
2013-03-23 01:39:00,33.1,28.4,29.96,North,0,0.0,0.0,83,0.00,,,0.00,WUHU216HW,2013-03-23 06:39:00,
2013-03-23 01:44:00,33.1,28.8,29.96,North,0,0.0,0.0,84,0.00,,,0.00,WUHU216HW,2013-03-23 06:44:00,
2013-03-23 01:49:00,33.1,28.8,29.96,North,0,0.0,0.0,84,0.00,,,0.00,WUHU216HW,2013-03-23 06:49:00,
2013-03-23 01:54:00,33.1,28.8,29.96,North,0,0.0,0.0,84,0.00,,,0.00,WUHU216HW,2013-03-23 06:54:00,
2013-03-23 01:59:00,32.9,28.6,29.95,North,0,0.0,0.0,84,0.00,,,0.00,WUHU216HW,2013-03-23 06:59:00,
2013-03-23 02:04:00,32.9,28.6,29.95,North,0,0.0,0.0,84,0.00,,,0.00,WUHU216HW,2013-03-23 07:04:00,
2013-03-23 02:09:00,32.9,28.6,29.95,North,0,0.0,0.0,84,0.00,,,0.00,WUHU216HW,2013-03-23 07:09:00,
2013-03-23 02:14:00,32.9,28.6,29.95,North,0,0.0,0.0,84,0.00,,,0.00,WUHU216HW,2013-03-23 07:14:00,
2013-03-23 02:19:00,32.8,28.7,29.95,North,0,0.0,0.0,85,0.00,,,0.00,WUHU216HW,2013-03-23 07:19:00,
2013-03-23 02:24:00,32.8,28.7,29.95,North,0,0.0,0.0,85,0.00,,,0.00,WUHU216HW,2013-03-23 07:24:00,
2013-03-23 02:29:00,32.8,28.7,29.95,North,0,0.0,0.0,85,0.00,,,0.00,WUHU216HW,2013-03-23 07:29:00,
2013-03-23 02:34:00,32.8,28.7,29.95,North,0,0.0,0.0,85,0.00,,,0.00,WUHU216HW,2013-03-23 07:34:00,
2013-03-23 02:40:00,32.8,28.7,29.95,North,0,0.0,0.0,85,0.00,,,0.00,WUHU216HW,2013-03-23 07:40:00,
2013-03-23 02:45:00,32.8,28.7,29.94,North,0,0.0,0.0,85,0.00,,,0.00,WUHU216HW,2013-03-23 07:45:00,
2013-03-23 02:49:00,32.8,28.7,29.94,North,0,0.0,0.0,85,0.00,,,0.00,WUHU216HW,2013-03-23 07:49:00,
2013-03-23 02:55:00,32.8,28.7,29.94,North,0,0.0,0.0,85,0.00,,,0.00,WUHU216HW,2013-03-23 07:55:00,
2013-03-23 03:00:00,32.9,28.9,29.94,North,0,0.0,0.0,85,0.00,,,0.00,WUHU216HW,2013-03-23 08:00:00,
2013-03-23 03:05:00,33.1,29.1,29.95,North,0,0.0,0.0,85,0.00,,,0.00,WUHU216HW,2013-03-23 08:05:00,
2013-03-23 03:10:00,33.1,28.8,29.94,North,0,0.0,0.0,84,0.00,,,0.00,WUHU216HW,2013-03-23 08:10:00,
2013-03-23 03:15:00,33.1,28.8,29.94,North,0,0.0,0.0,84,0.00,,,0.00,WUHU216HW,2013-03-23 08:15:00,
2013-03-23 03:20:00,33.1,28.8,29.95,North,0,0.0,0.0,84,0.00,,,0.00,WUHU216HW,2013-03-23 08:20:00,
2013-03-23 03:25:00,33.1,28.8,29.94,North,0,0.0,0.0,84,0.00,,,0.00,WUHU216HW,2013-03-23 08:25:00,
2013-03-23 03:30:00,33.1,28.8,29.94,North,0,0.0,0.0,84,0.00,,,0.00,WUHU216HW,2013-03-23 08:30:00,
2013-03-23 03:35:00,33.1,28.8,29.94,North,0,0.0,0.0,84,0.00,,,0.00,WUHU216HW,2013-03-23 08:35:00,
2013-03-23 03:40:00,33.1,28.8,29.94,North,0,0.0,0.0,84,0.00,,,0.00,WUHU216HW,2013-03-23 08:40:00,
2013-03-23 03:45:00,33.1,28.4,29.94,North,0,0.0,0.0,83,0.00,,,0.00,WUHU216HW,2013-03-23 08:45:00,
2013-03-23 03:50:00,33.1,28.4,29.94,North,0,0.0,0.0,83,0.00,,,0.00,WUHU216HW,2013-03-23 08:50:00,
2013-03-23 03:55:00,33.1,28.4,29.94,North,0,0.0,0.0,83,0.00,,,0.00,WUHU216HW,2013-03-23 08:55:00,
2013-03-23 04:00:00,33.1,28.4,29.94,North,0,0.0,0.0,83,0.00,,,0.00,WUHU216HW,2013-03-23 09:00:00,
2013-03-23 04:05:00,33.1,28.4,29.93,North,0,0.0,0.0,83,0.00,,,0.00,WUHU216HW,2013-03-23 09:05:00,
2013-03-23 04:10:00,33.3,28.6,29.93,North,0,0.0,0.0,83,0.00,,,0.00,WUHU216HW,2013-03-23 09:10:00,
2013-03-23 04:15:00,33.3,28.6,29.93,North,0,0.0,0.0,83,0.00,,,0.00,WUHU216HW,2013-03-23 09:15:00,
2013-03-23 04:20:00,33.5,28.8,29.93,North,0,0.0,0.0,83,0.00,,,0.00,WUHU216HW,2013-03-23 09:20:00,
2013-03-23 04:25:00,33.5,28.8,29.94,North,0,0.0,0.0,83,0.00,,,0.00,WUHU216HW,2013-03-23 09:25:00,
2013-03-23 04:30:00,33.5,28.8,29.94,North,0,0.0,0.0,83,0.00,,,0.00,WUHU216HW,2013-03-23 09:30:00,
2013-03-23 04:35:00,33.5,28.8,29.94,North,0,0.0,0.0,83,0.00,,,0.00,WUHU216HW,2013-03-23 09:35:00,
2013-03-23 04:40:00,33.5,28.8,29.94,North,0,0.0,0.0,83,0.00,,,0.00,WUHU216HW,2013-03-23 09:40:00,
2013-03-23 04:46:00,33.5,28.8,29.94,North,0,0.0,0.0,83,0.00,,,0.00,WUHU216HW,2013-03-23 09:46:00,
2013-03-23 04:51:00,33.5,28.8,29.94,North,0,0.0,0.0,83,0.00,,,0.00,WUHU216HW,2013-03-23 09:51:00,
2013-03-23 04:56:00,33.5,28.8,29.94,North,0,0.0,0.0,83,0.00,,,0.00,WUHU216HW,2013-03-23 09:56:00,
2013-03-23 05:01:00,33.5,28.8,29.94,North,0,0.0,0.0,83,0.00,,,0.00,WUHU216HW,2013-03-23 10:01:00,
2013-03-23 05:06:00,33.5,28.8,29.93,North,0,0.0,0.0,83,0.00,,,0.00,WUHU216HW,2013-03-23 10:06:00,
2013-03-23 05:11:00,33.5,28.8,29.94,North,0,0.0,0.0,83,0.00,,,0.00,WUHU216HW,2013-03-23 10:11:00,
2013-03-23 05:16:00,33.5,28.8,29.94,North,0,0.0,0.0,83,0.00,,,0.00,WUHU216HW,2013-03-23 10:16:00,
2013-03-23 05:22:00,33.5,28.5,29.94,North,0,0.0,0.0,82,0.00,,,0.00,WUHU216HW,2013-03-23 10:22:00,
2013-03-23 05:27:00,33.5,28.5,29.94,North,0,0.0,0.0,82,0.00,,,0.00,WUHU216HW,2013-03-23 10:27:00,
2013-03-23 05:32:00,33.7,28.7,29.94,North,0,0.0,0.0,82,0.00,,,0.00,WUHU216HW,2013-03-23 10:32:00,
2013-03-23 05:37:00,33.7,28.7,29.95,North,0,0.0,0.0,82,0.00,,,0.00,WUHU216HW,2013-03-23 10:37:00,
2013-03-23 05:42:00,33.8,28.5,29.95,North,0,0.0,0.0,81,0.00,,,0.00,WUHU216HW,2013-03-23 10:42:00,
2013-03-23 05:47:00,33.7,28.4,29.95,North,0,0.0,0.0,81,0.00,,,0.00,WUHU216HW,2013-03-23 10:47:00,
2013-03-23 05:52:00,33.7,28.4,29.96,North,0,0.0,0.0,81,0.00,,,0.00,WUHU216HW,2013-03-23 10:52:00,
2013-03-23 05:57:00,33.5,28.3,29.95,North,0,0.0,0.0,81,0.00,,,0.00,WUHU216HW,2013-03-23 10:57:00,
2013-03-23 06:02:00,33.5,28.3,29.95,North,0,0.0,0.0,81,0.00,,,0.00,WUHU216HW,2013-03-23 11:02:00,
2013-03-23 06:07:00,33.5,28.3,29.95,North,0,0.0,0.0,81,0.00,,,0.00,WUHU216HW,2013-03-23 11:07:00,
2013-03-23 06:12:00,33.5,28.3,29.95,North,0,0.0,0.0,81,0.00,,,0.00,WUHU216HW,2013-03-23 11:12:00,
2013-03-23 06:17:00,33.5,28.3,29.95,North,0,0.0,0.0,81,0.00,,,0.00,WUHU216HW,2013-03-23 11:17:00,
2013-03-23 06:22:00,33.5,28.3,29.95,North,0,0.0,0.0,81,0.00,,,0.00,WUHU216HW,2013-03-23 11:22:00,
2013-03-23 06:27:00,33.5,28.3,29.95,North,0,0.0,0.0,81,0.00,,,0.00,WUHU216HW,2013-03-23 11:27:00,
2013-03-23 06:32:00,33.5,28.5,29.95,North,0,0.0,0.0,82,0.00,,,0.00,WUHU216HW,2013-03-23 11:32:00,
2013-03-23 06:37:00,33.5,28.5,29.94,North,0,0.0,0.0,82,0.00,,,0.00,WUHU216HW,2013-03-23 11:37:00,
2013-03-23 06:42:00,33.5,28.5,29.94,North,0,0.0,0.0,82,0.00,,,0.00,WUHU216HW,2013-03-23 11:42:00,
2013-03-23 06:47:00,33.5,28.5,29.94,North,0,0.0,0.0,82,0.00,,,0.00,WUHU216HW,2013-03-23 11:47:00,
2013-03-23 06:53:00,33.5,28.5,29.94,North,0,0.0,0.0,82,0.00,,,0.00,WUHU216HW,2013-03-23 11:53:00,
2013-03-23 06:58:00,33.5,28.5,29.94,North,0,0.0,0.0,82,0.00,,,0.00,WUHU216HW,2013-03-23 11:58:00,
2013-03-23 07:03:00,33.5,28.5,29.95,North,0,0.0,0.0,82,0.00,,,0.00,WUHU216HW,2013-03-23 12:03:00,
2013-03-23 07:08:00,33.3,28.4,29.95,North,0,0.0,0.0,82,0.00,,,0.00,WUHU216HW,2013-03-23 12:08:00,
2013-03-23 07:13:00,33.3,28.4,29.95,North,0,0.0,0.0,82,0.00,,,0.00,WUHU216HW,2013-03-23 12:13:00,
2013-03-23 07:18:00,33.3,28.4,29.95,North,0,0.0,0.0,82,0.00,,,0.00,WUHU216HW,2013-03-23 12:18:00,
2013-03-23 07:23:00,33.5,28.5,29.96,North,0,0.0,0.0,82,0.00,,,0.00,WUHU216HW,2013-03-23 12:23:00,
2013-03-23 07:28:00,33.5,28.3,29.96,North,0,0.0,0.0,81,0.00,,,0.00,WUHU216HW,2013-03-23 12:28:00,
2013-03-23 07:33:00,33.5,28.3,29.96,North,0,0.0,0.0,81,0.00,,,0.00,WUHU216HW,2013-03-23 12:33:00,
2013-03-23 07:38:00,33.5,28.3,29.96,North,0,0.0,0.0,81,0.00,,,0.00,WUHU216HW,2013-03-23 12:38:00,
2013-03-23 07:43:00,33.5,28.3,29.96,North,0,0.0,0.0,81,0.00,,,0.00,WUHU216HW,2013-03-23 12:43:00,
2013-03-23 07:48:00,33.5,28.3,29.96,North,0,0.0,0.0,81,0.00,,,0.00,WUHU216HW,2013-03-23 12:48:00,
2013-03-23 07:53:00,33.5,28.3,29.96,North,0,0.0,0.0,81,0.01,,,0.01,WUHU216HW,2013-03-23 12:53:00,
2013-03-23 07:59:00,33.7,28.4,29.96,North,0,0.0,0.0,81,0.01,,,0.01,WUHU216HW,2013-03-23 12:59:00,
2013-03-23 08:04:00,33.8,28.5,29.96,North,0,0.0,0.0,81,0.01,,,0.01,WUHU216HW,2013-03-23 13:04:00,
2013-03-23 08:09:00,34.0,29.0,29.96,North,0,0.0,0.0,82,0.01,,,0.01,WUHU216HW,2013-03-23 13:09:00,
2013-03-23 08:14:00,34.0,29.0,29.96,North,0,0.0,0.0,82,0.01,,,0.01,WUHU216HW,2013-03-23 13:14:00,
2013-03-23 08:19:00,34.0,28.7,29.95,North,0,0.0,0.0,81,0.01,,,0.01,WUHU216HW,2013-03-23 13:19:00,
2013-03-23 08:24:00,34.0,28.7,29.96,North,0,0.0,0.0,81,0.01,,,0.01,WUHU216HW,2013-03-23 13:24:00,
2013-03-23 08:29:00,34.0,28.7,29.96,North,0,0.0,0.0,81,0.01,,,0.01,WUHU216HW,2013-03-23 13:29:00,
2013-03-23 08:34:00,34.0,28.7,29.96,North,0,0.0,0.0,81,0.01,,,0.01,WUHU216HW,2013-03-23 13:34:00,
2013-03-23 08:39:00,34.2,28.9,29.96,North,0,0.0,0.0,81,0.01,,,0.01,WUHU216HW,2013-03-23 13:39:00,
2013-03-23 08:44:00,34.2,28.9,29.96,North,0,0.0,0.0,81,0.01,,,0.01,WUHU216HW,2013-03-23 13:44:00,
2013-03-23 08:49:00,34.2,28.9,29.96,North,0,0.0,0.0,81,0.00,,,0.01,WUHU216HW,2013-03-23 13:49:00,
2013-03-23 08:54:00,34.4,29.1,29.96,North,0,0.0,0.0,81,0.00,,,0.01,WUHU216HW,2013-03-23 13:54:00,
2013-03-23 08:59:00,34.6,29.3,29.97,North,0,0.0,0.0,81,0.00,,,0.01,WUHU216HW,2013-03-23 13:59:00,
2013-03-23 09:04:00,34.6,29.0,29.97,North,0,0.0,0.0,80,0.00,,,0.01,WUHU216HW,2013-03-23 14:04:00,
2013-03-23 09:09:00,34.6,29.3,29.98,North,0,0.0,0.0,81,0.00,,,0.01,WUHU216HW,2013-03-23 14:09:00,
2013-03-23 09:14:00,34.9,29.6,29.98,North,0,0.0,0.0,81,0.00,,,0.01,WUHU216HW,2013-03-23 14:14:00,
2013-03-23 09:19:00,34.9,29.3,29.98,North,0,0.0,0.0,80,0.00,,,0.01,WUHU216HW,2013-03-23 14:19:00,
2013-03-23 09:24:00,35.1,29.5,29.98,North,0,0.0,0.0,80,0.00,,,0.01,WUHU216HW,2013-03-23 14:24:00,
2013-03-23 09:30:00,35.1,29.5,29.98,North,0,0.0,0.0,80,0.00,,,0.01,WUHU216HW,2013-03-23 14:30:00,
2013-03-23 09:35:00,35.1,29.2,29.98,North,0,0.0,0.0,79,0.00,,,0.01,WUHU216HW,2013-03-23 14:35:00,
2013-03-23 09:40:00,35.1,29.5,29.97,North,0,0.0,0.0,80,0.00,,,0.01,WUHU216HW,2013-03-23 14:40:00,
2013-03-23 09:45:00,35.3,29.3,29.97,North,0,0.0,0.0,79,0.00,,,0.01,WUHU216HW,2013-03-23 14:45:00,
2013-03-23 09:50:00,35.3,29.3,29.96,North,0,0.0,0.0,79,0.00,,,0.01,WUHU216HW,2013-03-23 14:50:00,
2013-03-23 09:55:00,35.5,29.3,29.96,North,0,0.0,0.0,78,0.00,,,0.01,WUHU216HW,2013-03-23 14:55:00,
2013-03-23 10:00:00,35.6,29.4,29.96,North,0,0.0,0.0,78,0.00,,,0.01,WUHU216HW,2013-03-23 15:00:00,
2013-03-23 10:05:00,35.8,29.6,29.97,North,0,0.0,0.0,78,0.01,,,0.01,WUHU216HW,2013-03-23 15:05:00,
2013-03-23 10:10:00,35.8,29.3,29.97,North,0,0.0,0.0,77,0.01,,,0.02,WUHU216HW,2013-03-23 15:10:00,
2013-03-23 10:15:00,36.0,29.4,29.97,North,0,0.0,0.0,77,0.01,,,0.02,WUHU216HW,2013-03-23 15:15:00,
2013-03-23 10:20:00,36.0,29.4,29.97,North,0,0.0,0.0,77,0.01,,,0.02,WUHU216HW,2013-03-23 15:20:00,
2013-03-23 10:25:00,36.0,29.4,29.98,North,0,0.0,0.0,77,0.01,,,0.02,WUHU216HW,2013-03-23 15:25:00,
2013-03-23 10:30:00,36.2,29.4,29.98,North,0,0.0,0.0,76,0.01,,,0.02,WUHU216HW,2013-03-23 15:30:00,
2013-03-23 10:35:00,36.2,29.4,29.98,North,0,0.0,0.0,76,0.01,,,0.02,WUHU216HW,2013-03-23 15:35:00,
2013-03-23 10:41:00,36.4,29.5,29.98,North,0,0.0,0.0,76,0.01,,,0.02,WUHU216HW,2013-03-23 15:41:00,
2013-03-23 10:46:00,36.5,30.0,29.98,North,0,0.0,0.0,77,0.01,,,0.02,WUHU216HW,2013-03-23 15:46:00,
2013-03-23 10:51:00,36.5,30.0,29.98,North,0,0.0,0.0,77,0.01,,,0.02,WUHU216HW,2013-03-23 15:51:00,
2013-03-23 10:56:00,36.7,30.2,29.99,North,0,0.0,0.0,77,0.01,,,0.02,WUHU216HW,2013-03-23 15:56:00,
2013-03-23 11:02:00,36.5,29.7,29.98,North,0,0.0,0.0,76,0.01,,,0.02,WUHU216HW,2013-03-23 16:02:00,
2013-03-23 11:07:00,36.5,29.7,29.99,North,0,0.0,0.0,76,0.00,,,0.02,WUHU216HW,2013-03-23 16:07:00,
2013-03-23 11:12:00,36.5,29.7,29.99,North,0,0.0,0.0,76,0.00,,,0.02,WUHU216HW,2013-03-23 16:12:00,
2013-03-23 11:17:00,36.7,29.9,29.99,North,0,0.0,0.0,76,0.00,,,0.02,WUHU216HW,2013-03-23 16:17:00,
2013-03-23 11:23:00,36.7,29.9,29.99,North,0,0.0,0.0,76,0.00,,,0.02,WUHU216HW,2013-03-23 16:23:00,
2013-03-23 11:28:00,36.7,29.5,29.99,North,0,0.0,0.0,75,0.00,,,0.02,WUHU216HW,2013-03-23 16:28:00,
2013-03-23 11:33:00,36.7,29.5,29.99,North,0,0.0,0.0,75,0.00,,,0.02,WUHU216HW,2013-03-23 16:33:00,
2013-03-23 11:38:00,36.7,29.5,29.99,North,0,0.0,0.0,75,0.00,,,0.02,WUHU216HW,2013-03-23 16:38:00,
2013-03-23 11:43:00,36.7,29.5,29.99,North,0,0.0,0.0,75,0.00,,,0.02,WUHU216HW,2013-03-23 16:43:00,
2013-03-23 11:48:00,36.7,29.5,29.99,North,0,0.0,0.0,75,0.00,,,0.02,WUHU216HW,2013-03-23 16:48:00,
2013-03-23 11:53:00,36.9,29.7,29.98,North,0,0.0,0.0,75,0.00,,,0.02,WUHU216HW,2013-03-23 16:53:00,
2013-03-23 11:58:00,36.9,29.3,29.98,North,0,0.0,0.0,74,0.00,,,0.02,WUHU216HW,2013-03-23 16:58:00,
2013-03-23 12:03:00,36.9,29.3,29.97,North,0,0.0,0.0,74,0.00,,,0.02,WUHU216HW,2013-03-23 17:03:00,
2013-03-23 12:08:00,36.7,29.2,29.97,North,0,0.0,0.0,74,0.00,,,0.02,WUHU216HW,2013-03-23 17:08:00,
2013-03-23 12:13:00,36.5,29.0,29.97,North,0,0.0,0.0,74,0.00,,,0.02,WUHU216HW,2013-03-23 17:13:00,
2013-03-23 12:18:00,36.7,29.2,29.96,North,0,0.0,0.0,74,0.00,,,0.02,WUHU216HW,2013-03-23 17:18:00,
2013-03-23 12:23:00,36.9,29.3,29.96,North,0,0.0,0.0,74,0.00,,,0.02,WUHU216HW,2013-03-23 17:23:00,
2013-03-23 12:29:00,37.1,29.5,29.96,North,0,0.0,0.0,74,0.01,,,0.03,WUHU216HW,2013-03-23 17:29:00,
2013-03-23 12:34:00,37.1,29.3,29.95,North,0,0.0,0.0,73,0.01,,,0.03,WUHU216HW,2013-03-23 17:34:00,
2013-03-23 12:39:00,36.9,29.1,29.95,North,0,0.0,0.0,73,0.01,,,0.03,WUHU216HW,2013-03-23 17:39:00,
2013-03-23 12:44:00,36.9,28.7,29.94,North,0,0.0,0.0,72,0.01,,,0.03,WUHU216HW,2013-03-23 17:44:00,
2013-03-23 12:49:00,37.1,28.9,29.93,North,0,0.0,0.0,72,0.01,,,0.03,WUHU216HW,2013-03-23 17:49:00,